DW9688 Weather Reports


time (UTC)temp
F
wind
direction
speed
knots
gust
knots
rain 1hr
in
rain 24hr
in
rain mn
in
humidity
%
barometer
mb
20260506185602 51 122 6.1 7.8 0.00 0.23 0.16 86 1007.3
20260506185102 52 109 6.1 7.8 0.00 0.23 0.16 86 1007.3
20260506184101 52 98 3.5 6.1 0.00 0.23 0.16 84 1007.3
20260506183101 52 96 3.5 4.3 0.00 0.23 0.16 83 1007.3
20260506182602 52 90 2.6 4.3 0.00 0.23 0.16 82 1007.3
20260506182101 52 111 1.7 3.5 0.00 0.23 0.16 82 1007.1
20260506181601 52 133 1.7 3.5 0.00 0.23 0.16 82 1007.0
20260506175603 52 115 4.3 5.2 0.00 0.23 0.16 83 1006.7
20260506175102 52 129 4.3 5.2 0.00 0.23 0.16 84 1006.7
20260506174604 52 134 4.3 6.1 0.00 0.23 0.16 83 1006.7
20260506174101 52 129 5.2 7.0 0.00 0.23 0.16 84 1006.8
20260506173101 52 129 7.0 8.7 0.00 0.23 0.16 84 1006.7
20260506172603 52 124 7.8 10.4 0.00 0.23 0.16 84 1006.6
20260506172101 52 119 7.8 10.4 0.00 0.23 0.16 84 1006.6
20260506171600 52 125 7.8 9.6 0.00 0.23 0.16 84 1006.6
20260506171104 52 113 9.6 11.3 0.00 0.23 0.16 84 1006.5
20260506165555 52 127 8.7 10.4 0.00 0.23 0.16 84 1006.4
20260506165053 52 143 8.7 10.4 0.00 0.23 0.16 83 1006.3
20260506164553 52 144 8.7 9.6 0.00 0.23 0.16 84 1006.3
20260506164050 52 134 8.7 10.4 0.00 0.23 0.16 84 1006.2
20260506163549 52 131 9.6 12.2 0.00 0.23 0.16 84 1006.3
20260506163046 52 129 11.3 14.8 0.00 0.23 0.16 84 1006.4
20260506162541 52 125 12.2 14.8 0.00 0.23 0.16 84 1006.4
20260506162040 53 117 12.2 13.9 0.00 0.23 0.16 83 1006.6
20260506161535 53 113 13.0 13.9 0.00 0.23 0.16 84 1006.7
20260506161034 53 114 11.3 13.9 0.00 0.23 0.16 81 1006.9
20260506160535 53 113 10.4 12.2 0.00 0.23 0.16 79 1006.9
20260506160033 54 127 10.4 12.2 0.00 0.23 0.16 79 1007.0
20260506155532 54 108 10.4 12.2 0.00 0.23 0.16 77 1006.9
20260506155031 54 134 6.1 12.2 0.00 0.23 0.16 76 1007.0
20260506154030 54 44 3.5 6.1 0.00 0.23 0.16 70 1006.7
20260506153022 54 39 4.3 8.7 0.00 0.23 0.16 71 1006.6
20260506152538 54 68 4.3 8.7 0.00 0.23 0.16 73 1006.6
20260506152018 54 14 4.3 7.8 0.00 0.23 0.16 72 1006.6
20260506151532 54 26 6.1 8.7 0.00 0.24 0.16 74 1006.7
20260506151050 54 26 6.1 8.7 0.00 0.24 0.16 72 1006.6
20260506150511 54 40 5.2 7.8 0.00 0.24 0.16 73 1006.6
20260506150018 54 26 5.2 8.7 0.00 0.24 0.16 73 1006.7
20260506145508 54 12 4.3 9.6 0.00 0.27 0.16 75 1006.7
20260506145002 54 7 3.5 9.6 0.00 0.30 0.16 75 1006.6
20260506143501 53 25 4.3 7.8 0.00 0.31 0.16 76 1006.5
20260506143016 53 355 4.3 7.0 0.00 0.31 0.16 78 1006.5
20260506142500 53 0 4.3 7.8 0.00 0.31 0.16 79 1006.5
20260506142005 52 21 4.3 7.8 0.00 0.31 0.16 80 1006.4
20260506141458 52 355 4.3 7.8 0.00 0.31 0.16 79 1006.4
20260506141004 52 9 3.5 7.0 0.00 0.31 0.16 80 1006.3
20260506140450 52 11 2.6 5.2 0.00 0.31 0.16 79 1006.2
20260506135944 51 328 3.5 6.1 0.00 0.31 0.16 80 1006.2
20260506135441 51 7 3.5 7.0 0.00 0.31 0.16 79 1006.2
20260506134936 51 332 4.3 7.0 0.00 0.32 0.16 79 1006.3
20260506134435 52 334 4.3 7.8 0.00 0.34 0.16 80 1006.3
20260506133930 52 338 5.2 10.4 0.00 0.35 0.16 79 1006.3
20260506133431 52 310 4.3 10.4 0.00 0.35 0.16 80 1006.3
20260506132931 52 355 4.3 7.8 0.00 0.35 0.16 80 1006.3
20260506132431 52 299 4.3 8.7 0.00 0.35 0.16 80 1006.3
20260506131929 52 5 4.3 8.7 0.00 0.35 0.16 81 1006.3
20260506131428 52 7 3.5 7.0 0.00 0.35 0.16 81 1006.3
20260506130430 51 355 4.3 8.7 0.00 0.35 0.16 81 1006.1
20260506125928 51 319 5.2 11.3 0.00 0.35 0.16 82 1006.1
20260506125431 51 327 5.2 11.3 0.00 0.35 0.16 82 1006.1
20260506124430 51 333 6.1 10.4 0.00 0.35 0.16 84 1005.9
20260506123945 51 355 7.0 10.4 0.00 0.35 0.16 84 1005.9
20260506123430 51 21 6.1 9.6 0.00 0.35 0.16 84 1005.9
20260506122430 51 24 5.2 9.6 0.00 0.35 0.16 84 1006.0
20260506121930 51 29 4.3 8.7 0.00 0.35 0.16 84 1005.7
20260506121430 51 336 5.2 8.7 0.00 0.35 0.16 84 1005.7
20260506120430 50 5 7.0 11.3 0.01 0.35 0.16 84 1005.5
20260506115931 50 37 5.2 8.7 0.01 0.35 0.15 85 1005.5
20260506115428 50 18 4.3 7.8 0.01 0.35 0.15 85 1005.4
20260506114931 50 35 4.3 7.0 0.01 0.35 0.15 86 1005.3
20260506114429 50 3 3.5 6.1 0.01 0.35 0.15 87 1005.3
20260506113929 51 35 4.3 7.8 0.02 0.35 0.15 87 1005.4
20260506112931 50 350 4.3 8.7 0.02 0.35 0.15 86 1005.3
20260506112429 50 359 4.3 8.7 0.02 0.35 0.15 87 1005.3
20260506111944 50 330 3.5 7.8 0.03 0.35 0.15 88 1005.2
20260506111428 50 330 3.5 6.1 0.04 0.35 0.15 89 1005.3
20260506110930 50 329 4.3 7.0 0.05 0.35 0.15 89 1005.1
20260506110429 50 355 3.5 7.0 0.05 0.35 0.15 90 1005.0
20260506105930 50 9 2.6 6.1 0.06 0.35 0.09 91 1005.1
20260506105459 50 350 2.6 5.2 0.08 0.35 0.09 91 1004.9
20260506104931 50 309 1.7 4.3 0.09 0.35 0.09 92 1004.9
20260506104431 50 290 1.7 3.5 0.09 0.35 0.09 91 1004.9
20260506103929 50 78 1.7 3.5 0.08 0.34 0.09 91 1004.8
20260506103428 50 59 2.6 5.2 0.08 0.34 0.09 91 1004.8
20260506102924 50 46 3.5 5.2 0.08 0.34 0.09 91 1004.8
20260506102421 50 62 3.5 4.3 0.06 0.32 0.09 91 1004.9
20260506101410 50 73 4.3 20.9 0.06 0.31 0.09 90 1005.0
20260506100907 50 81 4.3 20.9 0.05 0.31 0.09 90 1005.0
20260506095907 50 107 0.9 3.5 0.02 0.28 0.06 88 1004.9
20260506095406 50 138 0.9 1.7 0.01 0.27 0.06 88 1004.8
20260506094903 51 138 0.9 3.5 0.00 0.26 0.06 88 1004.7
20260506094405 50 138 1.7 3.5 0.00 0.26 0.06 88 1004.6
20260506093903 51 138 1.7 4.3 0.00 0.26 0.06 88 1004.4
20260506092903 51 157 0.9 1.7 0.00 0.26 0.06 88 1004.2
20260506092403 51 157 0.9 1.7 0.00 0.26 0.06 88 1004.1
20260506091902 50 157 0.9 1.7 0.00 0.26 0.06 89 1004.1
20260506091402 50 157 0.9 3.5 0.00 0.26 0.06 89 1004.1
20260506090404 50 157 0.9 3.5 0.02 0.26 0.06 89 1004.1
20260506085903 50 138 0.9 3.5 0.02 0.26 0.05 89 1004.0
20260506085416 50 138 1.7 4.3 0.02 0.26 0.05 89 1003.8
20260506084902 50 138 2.6 4.3 0.02 0.26 0.05 90 1003.8
20260506084417 50 97 1.7 4.3 0.02 0.26 0.05 90 1003.7
20260506083903 49 97 1.7 4.3 0.02 0.26 0.05 90 1003.6
20260506083404 49 82 2.6 4.3 0.02 0.26 0.05 90 1003.6
20260506082901 49 93 2.6 3.5 0.02 0.26 0.05 90 1003.6
20260506082402 49 92 1.7 3.5 0.02 0.26 0.05 90 1003.6
20260506081901 49 92 0.9 3.5 0.02 0.26 0.05 90 1003.6
20260506080917 49 92 0.9 1.7 0.01 0.25 0.05 89 1003.5
20260506080402 49 92 0.0 1.7 0.00 0.24 0.05 89 1003.4
20260506073404 49 99 0.9 4.3 0.00 0.24 0.05 90 1003.6
20260506072904 49 269 0.9 1.7 0.00 0.24 0.05 91 1003.6
20260506072418 49 269 0.9 1.7 0.00 0.24 0.05 91 1003.5
20260506071903 49 269 0.9 1.7 0.00 0.24 0.05 91 1003.4
20260506071359 49 269 0.9 1.7 0.00 0.24 0.05 91 1003.4
20260506070858 49 176 1.7 4.3 0.00 0.24 0.05 92 1003.3
20260506070354 49 176 2.6 4.3 0.00 0.24 0.05 92 1003.4
20260506062329 48 299 1.7 3.5 0.00 0.24 0.05 92 1003.4
20260506060329 47 287 1.7 2.6 0.00 0.24 0.05 93 1003.4
20260506051304 47 241 2.6 4.3 0.00 0.25 0.05 92 1003.3
20260506050302 47 251 2.6 4.3 0.00 0.25 0.05 92 1003.1
20260506044303 47 334 1.7 2.6 0.00 0.25 0.05 92 1003.0
20260506043828 47 334 1.7 2.6 0.00 0.25 0.05 91 1003.1
20260506043301 47 264 1.7 3.5 0.00 0.25 0.05 91 1003.1
20260506042305 47 224 2.6 4.3 0.00 0.25 0.05 91 1003.1
20260506041801 47 229 2.6 4.3 0.00 0.25 0.05 91 1003.0
20260506041300 47 217 2.6 3.5 0.00 0.25 0.05 91 1003.0
20260506040818 47 228 2.6 3.5 0.00 0.25 0.05 91 1003.0
20260506040300 47 228 1.7 3.5 0.00 0.25 0.05 90 1003.1
20260506035305 48 181 2.6 4.3 0.00 0.25 0.05 90 1003.1
20260506034302 48 178 3.5 4.3 0.00 0.25 0.05 89 1003.3
20260506033802 48 174 3.5 6.1 0.00 0.25 0.05 89 1003.4
20260506032804 48 148 5.2 7.0 0.00 0.25 0.05 88 1003.4
20260506032306 48 143 3.5 7.0 0.00 0.25 0.05 88 1003.4
20260506031801 49 145 2.6 5.2 0.00 0.25 0.05 88 1003.5
20260506031316 49 165 2.6 4.3 0.00 0.25 0.05 87 1003.5
20260506030315 49 167 6.1 8.7 0.00 0.25 0.05 87 1003.8
20260506025801 49 178 7.0 9.6 0.00 0.25 0.05 87 1003.8
20260506025305 49 136 7.8 9.6 0.00 0.25 0.05 86 1004.0
20260506024802 49 126 8.7 12.2 0.00 0.25 0.05 86 1004.1
20260506024300 49 128 7.0 12.2 0.00 0.25 0.05 85 1004.1
20260506023801 50 130 4.3 9.6 0.00 0.25 0.05 85 1004.2
20260506023301 50 152 6.1 11.3 0.00 0.25 0.05 84 1004.2
20260506022317 50 145 10.4 13.9 0.00 0.25 0.05 83 1004.3
20260506021803 51 130 11.3 14.8 0.00 0.25 0.05 82 1004.5
20260506021301 51 134 12.2 14.8 0.00 0.25 0.05 82 1004.7
20260506020302 51 118 13.0 15.6 0.00 0.25 0.05 84 1005.0
20260506015801 51 116 13.9 16.5 0.00 0.25 0.05 83 1004.9
20260506015305 51 122 13.9 16.5 0.00 0.25 0.05 87 1005.0
20260506014802 51 114 13.9 15.6 0.00 0.25 0.05 88 1005.0
20260506014301 51 116 13.9 15.6 0.00 0.25 0.05 88 1005.0
20260506013802 51 120 13.9 15.6 0.00 0.25 0.05 87 1005.0
20260506013301 51 123 13.0 15.6 0.00 0.25 0.05 86 1005.2
20260506012801 51 126 13.0 15.6 0.00 0.25 0.05 85 1005.3
20260506012307 51 122 13.9 17.4 0.00 0.25 0.05 84 1005.4
20260506011801 52 124 14.8 17.4 0.00 0.25 0.05 82 1005.3
20260506011300 52 130 16.5 19.1 0.00 0.25 0.05 83 1005.4
20260506010303 52 118 16.5 20.0 0.00 0.25 0.05 82 1005.3
20260506005305 52 104 15.6 18.2 0.00 0.25 0.05 83 1005.5
20260506004802 52 120 16.5 20.9 0.00 0.25 0.05 84 1005.7
20260506004314 52 120 15.6 20.9 0.00 0.25 0.05 82 1006.0
20260506003817 51 112 15.6 22.6 0.00 0.25 0.05 82 1006.0
20260506002817 52 98 13.9 19.1 0.00 0.25 0.05 83 1006.3
20260506001804 52 97 13.9 17.4 0.00 0.25 0.05 84 1006.4
20260506001257 52 105 13.0 17.4 0.00 0.25 0.05 86 1006.5
20260506000752 51 99 8.7 15.6 0.00 0.25 0.05 86 1006.5
20260505235800 50 151 4.3 8.7 0.00 0.25 0.05 84 1006.4
20260505235242 51 163 4.3 7.8 0.01 0.25 0.05 84 1006.6
20260505234741 51 224 5.2 11.3 0.01 0.25 0.05 84 1006.7
20260505233241 52 128 13.9 23.5 0.02 0.25 0.05 83 1006.8
20260505232733 52 105 18.2 23.5 0.03 0.25 0.05 83 1007.0
20260505232231 52 98 19.1 22.6 0.04 0.25 0.05 83 1006.9
20260505231803 52 108 17.4 21.7 0.05 0.25 0.05 82 1006.7
20260505231232 52 111 14.8 20.9 0.05 0.25 0.05 80 1006.8
20260505230225 51 75 12.2 17.4 0.05 0.25 0.05 85 1006.9
20260505225724 51 95 11.3 17.4 0.05 0.25 0.00 86 1006.9
20260505225225 51 86 8.7 12.2 0.04 0.24 0.00 88 1007.1
20260505224225 52 133 8.7 20.0 0.03 0.24 0.00 90 1007.3
20260505223726 52 119 12.2 20.0 0.04 0.24 0.00 90 1007.3
20260505223237 52 92 13.0 16.5 0.03 0.23 0.00 90 1007.3
20260505222722 52 105 12.2 16.5 0.03 0.22 0.00 91 1007.3
20260505221708 52 78 9.6 14.8 0.02 0.20 0.00 92 1007.4
20260505221210 52 109 8.7 11.3 0.03 0.20 0.00 92 1007.2
20260505220513 52 150 6.1 9.6 0.04 0.20 0.00 91 1007.2
20260505215712 52 172 7.0 10.4 0.04 0.20 0.17 91 1007.2
20260505215208 52 138 7.8 10.4 0.04 0.20 0.17 90 1007.1
20260505214707 52 179 4.3 10.4 0.04 0.20 0.17 90 1007.1
20260505214206 52 100 2.6 6.1 0.04 0.20 0.17 89 1007.0
20260505213704 52 114 2.6 6.1 0.04 0.20 0.17 89 1007.1
20260505213202 52 91 3.5 6.1 0.04 0.20 0.17 89 1007.2
20260505212702 52 74 2.6 6.1 0.04 0.19 0.17 90 1007.2
20260505211705 52 97 5.2 9.6 0.04 0.18 0.17 89 1007.4
20260505211159 53 96 8.7 13.0 0.03 0.17 0.17 89 1007.3
20260505210156 53 103 14.8 17.4 0.03 0.17 0.17 88 1007.4
20260505205658 52 109 17.4 20.0 0.03 0.17 0.13 89 1007.3
20260505205157 53 103 18.2 20.9 0.03 0.17 0.13 89 1007.3
20260505204655 52 103 17.4 20.9 0.03 0.17 0.13 90 1007.1
20260505203656 52 99 15.6 19.1 0.02 0.16 0.13 90 1007.2
20260505202652 52 86 13.0 16.5 0.02 0.15 0.13 89 1007.1
20260505201642 53 97 11.3 13.9 0.01 0.14 0.13 89 1007.4
20260505201136 53 101 9.6 13.0 0.01 0.14 0.13 88 1007.4
20260505200634 53 101 9.6 12.2 0.01 0.14 0.13 87 1007.3
20260505200133 53 120 10.4 12.2 0.00 0.13 0.13 86 1007.3
20260505195630 53 119 11.3 12.2 0.00 0.13 0.13 86 1007.3
20260505195130 53 122 11.3 13.9 0.00 0.13 0.13 87 1007.2
20260505194629 53 116 11.3 13.9 0.00 0.13 0.13 86 1007.2
20260505194144 53 118 9.6 13.0 0.00 0.13 0.13 85 1007.0
20260505193629 53 121 10.4 13.0 0.00 0.13 0.13 86 1006.8
20260505193130 53 128 10.4 13.0 0.00 0.13 0.13 87 1006.9
20260505192629 53 127 11.3 13.0 0.00 0.13 0.13 86 1007.0
20260505192129 53 130 11.3 14.8 0.00 0.13 0.13 86 1006.8
20260505191629 53 138 13.0 16.5 0.00 0.13 0.13 87 1006.8
20260505191130 53 133 13.9 17.4 0.00 0.13 0.13 87 1006.8
20260505190628 53 132 13.9 18.2 0.00 0.13 0.13 88 1006.9